Location: Argonnex
(45.9500°N, 6.1333°E)
Time: 06:24:33
(UTC+00:00)

Cosmos 2266 Rocket - Pass Details

Date: 06 August 2024
Orbit: 933 x 1008 km, 82.9° (Epoch: 08 September)

Event Time Altitude Azimuth Distance (km) Brightness Sun altitude
Rises 03:35:13 0° 335° (NNW) 3,602 7.1 -8.3°
Reaches altitude 10° 03:38:59 10° 311° (NW) 2,650 6.1 -7.7°
Maximum altitude 03:41:55 14° 282° (WNW) 2,363 5.6 -7.3°
Drops below altitude 10° 03:44:50 10° 252° (WSW) 2,646 5.7 -6.9°
Enters shadow 03:45:48 - 245° (WSW) 2,843 5.8 -6.7°
